Find Starlink 11365

NORAD ID: 62886 Int'l Des: 2025-024 Owner: SPXS Country: US Constellation: starlink operational
LEOCIRCULAR

現在のビュー

3D地球を読み込み中...

About Starlink 11365

Starlink 11365 (NORAD 62886) is a starlink constellation satellite (v2 mini d2c) launched Feb 4, 2025 by SPXS of US. It operates in LEO, CIRCULAR orbit with a mass of 960.00 kg.

Starlink 11365について

説明を読み込み中...

次回通過

Passes for default location (London). Set your location on the main map for personalized predictions.

高度履歴

Loading altitude history...

軌道要素

1 62886U 25024H 26170.38239716 .00145155 00000-0 11142-2 0 9990
2 62886 42.9988 288.1781 0002725 283.7841 76.2723 15.70855624 79462
Epoch: Jun 19, 2026 • Age: 58 hours

現在のステータス

高度 359.1 km
速度 7.70 km/s
衛星直下点 -25.46°S, 48.34°E
打ち上げ日 Feb 4, 2025
運用期間 1.3 years
タイプ internet

技術仕様

分類 Payload
質量 960.00 kg
乾燥質量 910.00 kg
総質量 960.00 kg
長さ 0.30 m
直径 4.10 m
スパン 29.00 m
形状 Box + pan
製造者 SPXS
バスタイプ Starlink V2MD
フェーズステータス In Orbit
所有者/国 SPXS/US

Most Searched